RH
52 56 57 58 61 63 63 63 62 64 68 70 75 78 79 81 80 78 78 76 74 74 75 75 79 82 80 80 82 80 75 73 74 73 72 69 66 67 67 65 63 61 58 53 49 48 48 47 46 46 43 38 33 28 26 26 26 25 23 23 24 24 24 24 24 23 22 21 20 20 19 19 20 22 24 24 24 24 24 22 19 17 15 14 14 15
50 55 55 54 57 60 61 61 62 64 67 69 74 78 80 81 81 79 78 78 75 74 75 75 80 82 79 78 80 80 75 71 72 71 69 68 66 67 67 65 62 58 52 49 48 48 48 48 46 44 40 35 31 29 27 26 24 21 19 19 21 23 23 23 23 22 20 20 19 19 18 19 21 24 24 24 24 24 23 21 18 15 13 11 11 12
49 55 53 51 56 58 57 59 60 62 66 70 72 76 79 80 80 77 76 77 75 75 76 75 78 79 76 76 78 79 76 71 70 68 67 69 67 67 68 65 60 53 49 49 49 49 48 47 45 44 39 35 32 31 29 26 23 20 18 17 19 21 21 21 20 20 18 19 19 19 19 21 23 24 25 24 24 24 23 20 18 15 13 12 12 13
46 53 53 52 55 56 54 56 58 61 65 70 71 73 76 77 77 76 75 75 74 74 76 74 75 76 72 72 73 74 74 70 67 66 66 67 67 67 66 62 57 51 48 50 50 50 49 47 47 44 39 36 34 32 29 26 22 20 19 18 18 18 17 16 17 18 19 19 20 20 21 23 24 25 25 24 24 24 23 21 18 15 13 13 14 14
40 46 51 53 54 53 52 53 55 58 64 67 68 71 73 73 74 74 74 74 72 72 72 71 75 75 70 68 68 68 70 68 65 64 65 65 63 63 61 58 54 49 48 49 50 51 50 49 48 43 39 37 35 31 28 24 21 20 19 18 18 17 16 15 16 17 19 20 21 22 24 25 25 25 25 24 23 22 21 20 18 15 14 14 15 15
36 40 47 51 52 51 50 52 52 56 62 64 65 69 71 72 74 73 72 73 74 74 71 70 73 72 68 66 66 67 69 68 65 63 63 62 61 61 58 56 54 52 52 52 52 53 52 51 48 43 40 38 34 31 27 22 20 20 18 18 18 18 18 18 17 17 17 18 21 22 23 24 24 24 23 23 20 19 18 18 17 16 15 15 16 17
40 38 43 49 49 48 48 49 51 53 60 64 63 64 67 71 75 74 73 74 74 74 71 70 73 71 66 64 64 66 67 66 64 63 62 60 60 61 59 57 57 58 59 60 59 57 55 52 48 42 41 38 34 29 23 20 21 20 19 19 19 19 20 19 19 19 19 19 21 22 23 23 23 23 22 21 20 19 19 19 18 17 17 18 18 18
39 36 41 46 46 46 46 48 50 51 58 63 62 61 65 69 73 74 75 76 75 73 72 72 71 71 68 61 60 63 64 64 63 62 61 59 58 58 59 59 61 62 65 66 65 61 57 53 48 43 41 40 35 27 21 20 21 20 20 19 19 20 20 20 20 22 23 23 24 24 24 24 23 23 22 22 22 22 22 22 20 18 18 19 20 20
36 35 38 41 42 44 44 45 47 48 53 58 59 61 63 66 71 73 74 77 76 74 75 73 70 72 70 62 60 62 62 63 61 59 59 57 56 55 57 58 60 63 65 67 68 64 59 54 49 45 43 41 35 26 21 21 21 21 21 20 20 21 21 22 23 25 26 26 27 27 27 26 25 24 24 25 25 24 24 23 22 20 20 21 22 22
32 32 35 36 40 43 43 43 44 47 51 54 57 60 61 65 70 72 75 76 76 77 75 72 72 76 72 64 63 65 62 60 57 56 57 58 57 56 56 58 60 62 63 64 67 66 59 54 50 47 47 44 33 24 22 21 21 22 23 23 23 23 25 26 27 28 29 30 31 32 31 30 30 29 29 28 28 28 27 27 26 25 25 24 24 24
34 33 34 35 37 42 45 44 44 47 49 51 57 61 63 68 70 73 77 74 76 81 75 71 74 75 73 67 64 63 60 58 57 58 60 59 60 58 57 59 61 60 62 63 65 65 59 54 50 47 48 45 31 23 23 21 22 24 24 25 26 28 30 30 31 32 34 36 37 37 35 34 33 32 32 32 32 32 31 31 31 30 29 28 28 27
39 36 36 36 36 43 48 48 47 49 50 52 59 65 67 71 73 75 77 73 79 84 75 72 73 72 74 69 62 60 59 59 60 60 61 61 61 60 59 60 59 59 62 62 63 63 59 54 50 47 48 44 30 25 24 21 23 26 27 30 32 33 34 35 36 37 39 39 38 38 38 36 34 32 32 33 34 35 35 34 33 33 32 31 31 31
44 41 42 40 37 42 48 53 52 52 54 55 59 66 70 75 77 80 80 76 80 80 72 73 73 72 73 65 58 59 58 58 59 58 59 60 60 60 57 56 57 58 60 60 60 61 59 55 51 47 48 43 32 28 27 23 27 30 32 35 36 37 38 39 40 41 41 41 41 41 40 37 36 33 32 33 35 36 36 35 34 33 32 32 32 33
49 46 47 44 41 41 45 54 56 55 57 58 60 63 68 77 81 83 82 73 71 72 72 73 74 73 69 58 54 55 52 52 53 54 57 58 57 56 54 52 54 56 57 58 59 59 58 55 50 47 49 44 32 29 29 27 31 35 37 39 39 40 41 41 43 43 43 44 44 43 41 40 40 38 36 36 37 38 37 36 35 34 34 34 35 36
53 50 49 46 45 42 42 50 55 56 57 58 62 61 61 69 72 72 73 66 65 74 78 75 73 71 63 55 53 54 53 50 48 49 52 54 55 55 55 54 53 54 55 55 56 56 55 53 50 48 50 46 33 30 31 31 35 39 40 41 41 42 43 44 45 45 46 46 46 46 45 45 44 42 40 39 40 41 40 39 39 38 37 37 38 39
52 53 51 44 42 42 43 48 51 54 58 58 61 61 60 63 63 61 62 63 65 76 83 79 70 65 58 54 55 57 59 55 50 48 48 51 55 56 55 53 51 51 51 51 51 50 50 49 48 48 50 45 35 31 35 36 37 40 42 43 43 43 44 45 46 47 48 48 49 50 50 49 48 45 43 42 43 43 42 42 42 41 41 41 41 41
51 54 49 38 38 42 44 48 49 52 58 59 58 60 61 61 60 59 58 60 63 67 73 73 67 63 58 53 56 61 62 60 57 53 48 50 54 53 51 49 49 48 48 48 48 47 48 48 48 49 49 44 36 33 37 39 38 41 43 43 44 44 45 46 48 48 49 50 51 53 51 49 49 48 45 44 45 45 44 42 42 43 42 42 43 42
52 55 46 35 36 39 39 43 48 49 50 54 55 55 56 55 55 57 55 60 64 64 66 67 66 65 61 56 57 59 61 60 61 59 53 52 54 53 49 46 46 47 47 49 49 48 48 48 49 49 47 44 39 36 38 40 40 41 43 43 44 45 46 48 49 49 50 50 51 52 51 50 51 50 47 46 47 47 45 44 43 44 44 44 44 44
48 49 44 37 36 37 37 40 48 47 41 46 50 47 48 52 54 53 54 60 62 61 65 66 63 61 60 61 57 54 58 59 59 62 58 54 54 53 51 47 45 47 49 50 49 47 48 48 48 47 47 46 41 38 40 41 41 42 43 43 44 46 48 49 50 50 49 49 49 52 52 52 54 53 48 46 47 47 45 44 45 45 46 46 46 46
45 43 41 39 36 37 38 40 46 45 39 40 44 43 47 55 56 52 52 56 55 59 65 64 61 59 58 61 57 52 56 57 57 61 60 57 55 53 53 51 47 47 48 48 48 47 49 49 48 46 48 49 42 38 41 42 42 44 43 43 44 46 49 49 50 50 48 47 48 50 51 51 51 52 48 45 45 46 44 45 46 47 48 48 48 49
40 40 41 42 40 40 39 38 40 42 42 43 46 48 51 53 53 52 53 53 51 57 65 61 58 58 57 58 55 50 52 55 55 58 60 60 58 54 54 53 49 48 46 46 48 49 49 49 48 48 51 51 44 39 40 42 43 44 44 44 44 46 49 49 50 50 47 46 47 48 51 50 50 51 50 46 45 47 48 48 49 51 51 52 53 54
35 39 43 43 43 41 39 38 39 40 44 50 51 50 49 49 50 51 54 54 47 49 55 53 49 50 50 52 50 48 50 52 54 56 59 60 59 56 55 52 51 50 48 46 48 48 48 48 48 49 50 50 46 41 40 42 42 42 45 45 45 47 48 48 50 49 47 46 46 48 52 53 52 52 51 48 46 48 49 49 51 54 56 58 58 58
36 41 42 41 43 42 39 40 41 39 42 46 46 44 43 44 44 44 45 47 43 42 47 47 45 45 47 49 50 50 51 52 54 56 57 58 59 58 55 52 52 53 50 48 47 46 46 46 48 50 50 49 48 46 43 43 42 42 43 44 45 46 48 48 49 49 47 47 47 51 54 54 54 52 50 48 47 47 48 50 54 57 59 60 59 59
38 40 39 40 47 46 41 43 44 41 40 39 38 40 40 40 42 43 44 44 41 43 46 47 46 46 45 49 52 51 51 51 53 54 55 56 59 59 56 53 52 52 50 47 45 44 44 45 48 49 48 48 49 49 46 43 43 42 43 44 44 46 48 48 48 47 46 47 48 51 55 55 54 52 49 47 47 47 49 53 57 60 60 61 60 59
37 40 39 40 46 47 45 49 50 45 43 43 44 43 40 41 43 41 43 42 39 42 46 45 45 43 43 47 51 51 51 51 52 52 53 54 56 57 55 52 50 49 47 44 42 42 41 43 46 46 47 48 49 50 48 44 43 42 43 43 44 46 47 47 47 46 45 46 47 51 54 55 55 53 49 47 46 48 51 56 59 60 61 61 60 58
35 41 43 41 45 49 51 56 56 51 48 48 48 43 38 41 41 37 39 40 38 42 44 42 41 39 40 45 48 50 53 54 53 52 51 51 51 54 54 52 49 48 45 42 40 40 40 42 44 46 49 50 49 49 48 44 42 42 43 44 45 46 46 47 47 46 45 46 47 50 52 55 56 52 48 46 46 49 54 58 60 60 60 60 58 57
37 41 44 42 42 46 51 54 55 52 48 44 42 39 39 43 42 39 40 40 40 42 42 41 40 38 40 45 46 49 53 54 53 52 51 49 47 49 52 51 48 47 46 43 40 38 39 41 44 45 47 47 46 46 45 43 41 42 42 44 45 45 45 46 47 47 48 47 48 50 52 56 56 51 46 46 47 51 57 60 60 60 59 59 58 57
35 33 38 41 41 44 48 49 50 47 42 40 39 37 39 43 43 40 39 38 39 40 39 42 42 38 40 43 42 44 48 50 50 49 49 47 44 45 47 48 47 46 45 43 39 37 38 41 44 44 43 43 43 42 42 41 40 40 41 43 45 45 45 45 45 47 49 48 49 51 54 57 56 50 45 46 49 54 59 61 61 59 59 58 57 55
37 33 37 40 40 44 48 48 48 43 39 41 41 38 38 42 42 38 38 40 39 36 36 40 40 38 40 40 38 40 44 46 45 44 44 44 44 44 44 45 46 45 43 40 37 37 39 41 42 41 40 40 39 39 40 39 39 40 42 44 45 44 44 44 44 46 48 48 50 52 54 57 55 49 46 47 52 58 60 60 59 58 58 57 55 54
35 35 41 40 37 41 45 47 48 43 38 38 39 38 39 40 40 37 39 44 42 37 38 41 40 41 40 38 36 37 40 42 42 41 41 41 42 43 44 44 45 44 40 37 37 38 40 40 40 39 38 37 36 37 38 39 40 41 43 45 45 44 44 43 44 46 48 49 50 52 55 56 53 48 47 50 56 60 59 58 57 56 56 55 54 51
31 34 42 41 36 39 44 48 49 44 39 36 37 40 37 35 36 37 40 45 40 36 41 43 40 40 40 38 37 37 39 41 40 39 39 39 40 41 42 42 41 40 37 36 38 39 39 39 38 38 38 38 37 37 38 39 41 41 43 44 45 44 44 45 45 47 48 49 51 53 55 54 50 48 49 54 59 59 57 56 55 55 54 54 52 46
31 34 39 40 37 38 42 45 49 47 41 37 38 39 37 36 38 38 38 41 38 36 40 39 35 35 39 40 39 38 39 40 39 38 38 37 37 37 37 37 35 35 35 35 37 37 36 37 37 37 40 41 40 40 40 41 41 42 43 44 45 45 44 45 47 48 49 49 51 54 53 50 48 48 52 58 60 57 55 54 54 54 54 53 48 40
34 33 34 37 36 38 41 44 47 47 43 41 41 40 38 39 39 37 35 37 38 37 36 33 30 34 38 38 37 38 41 40 38 37 36 36 35 34 34 34 32 33 34 35 35 34 34 35 36 38 41 42 42 43 42 42 42 42 43 43 44 44 44 46 48 49 49 50 52 52 50 47 46 49 54 58 57 55 54 53 52 53 52 48 42 36
35 34 34 36 36 38 43 43 41 41 43 44 44 41 37 34 34 34 33 34 36 36 34 32 32 36 38 35 35 38 39 36 35 34 33 33 32 31 31 32 32 32 33 33 34 34 34 35 36 38 39 40 42 43 42 42 43 43 43 43 43 44 45 47 49 49 50 51 50 48 44 43 45 49 55 57 56 54 52 51 51 49 46 42 38 34
36 36 35 35 34 38 45 44 40 41 44 43 41 42 40 36 36 35 33 35 36 35 34 33 31 34 35 32 32 33 33 33 34 33 32 31 30 29 29 30 31 31 32 33 34 34 33 33 34 35 37 39 42 43 44 44 44 44 44 44 44 46 47 48 49 50 49 49 46 42 40 41 45 51 55 55 53 52 50 48 46 44 41 39 36 32
39 39 37 35 33 34 38 42 43 43 42 39 37 40 41 38 37 34 30 35 38 35 32 31 30 32 32 29 29 30 30 32 34 33 32 31 31 31 31 31 31 31 33 34 34 33 32 31 31 33 35 38 40 42 44 45 45 45 44 45 46 48 49 50 50 48 45 43 40 37 37 42 47 53 55 53 51 49 46 43 40 39 39 37 33 30
39 40 39 35 33 35 37 40 41 36 33 35 33 33 34 34 35 32 29 33 38 35 29 27 29 32 30 26 25 27 28 29 31 30 29 31 32 33 33 33 34 34 36 36 36 35 33 31 32 34 35 35 36 39 43 45 45 45 45 46 48 48 49 49 46 41 39 38 36 35 38 44 50 53 52 49 47 44 41 38 37 37 37 34 30 29
37 38 39 35 34 39 38 34 34 31 31 35 33 30 31 31 32 33 30 29 31 28 23 23 27 31 29 25 23 24 25 27 29 27 26 27 30 32 33 33 34 36 37 37 37 35 33 31 32 34 35 34 32 36 42 44 45 46 47 48 48 49 48 43 38 35 35 34 34 36 40 46 50 51 48 44 41 39 37 36 36 37 35 32 29 28
38 40 42 38 36 38 35 30 29 28 29 33 33 31 30 29 29 32 32 30 26 21 19 20 24 27 27 24 23 25 26 28 29 26 24 25 28 30 31 33 34 35 36 36 35 33 31 31 32 34 35 32 29 34 42 45 46 47 47 48 49 47 42 35 32 32 33 33 34 37 41 45 47 45 41 38 37 36 36 36 36 36 34 30 28 27
37 39 39 36 35 37 36 33 32 30 28 28 30 31 31 30 30 33 35 33 26 19 17 18 20 23 24 24 25 26 27 29 29 25 22 23 26 29 31 32 33 35 34 33 33 32 31 32 32 33 33 29 27 33 41 45 46 46 46 47 45 40 34 29 30 31 32 33 36 38 41 43 42 39 36 36 36 36 36 37 36 36 33 29 27 27
34 36 38 39 38 39 35 32 33 33 30 29 29 30 29 30 32 36 37 32 25 20 18 17 18 20 22 23 25 26 26 26 25 23 22 22 24 27 30 32 33 34 33 32 32 32 33 34 34 33 30 26 26 32 39 42 43 44 45 43 38 32 28 29 31 31 32 34 37 39 40 39 37 36 35 35 35 35 37 38 37 35 32 28 27 27
35 36 37 37 37 38 38 36 35 33 31 30 31 30 29 31 37 39 34 26 23 22 19 18 19 21 21 22 23 23 24 24 24 24 24 24 24 25 28 31 32 32 33 33 33 33 34 36 36 34 30 25 25 29 34 37 39 39 38 34 29 28 29 30 31 32 34 35 37 38 38 36 35 35 35 35 35 36 38 38 37 34 30 27 27 28
35 34 35 36 37 38 40 39 38 36 33 32 32 32 31 33 35 34 28 23 22 22 19 19 21 22 21 22 22 23 24 25 25 25 25 25 26 27 28 30 30 31 33 33 33 35 36 37 37 34 28 24 23 25 28 30 31 31 29 28 27 28 30 31 32 33 34 35 37 37 35 35 35 35 35 35 36 37 38 38 36 33 29 27 27 28
35 34 36 38 40 41 40 40 40 39 36 33 31 31 32 30 28 27 25 23 21 18 17 19 21 22 23 24 24 23 24 25 25 25 25 26 28 28 29 30 30 31 32 32 34 36 38 37 37 32 26 22 22 23 24 25 26 27 27 28 28 29 31 32 32 33 34 35 36 35 34 34 34 34 35 36 37 37 37 37 36 31 28 27 27 28
35 36 37 37 40 43 43 41 39 37 35 33 31 30 30 27 25 25 24 24 22 20 19 19 19 21 22 24 25 25 25 25 25 25 25 26 28 29 30 31 31 31 32 33 35 37 37 36 36 31 25 22 23 24 24 25 25 27 27 28 29 30 32 32 32 33 34 35 35 35 34 34 34 34 36 37 36 37 38 37 34 30 27 27 27 28
34 35 36 36 38 39 39 39 38 36 36 35 32 30 29 28 27 26 24 25 25 24 23 21 20 20 20 20 22 24 25 25 24 24 26 27 28 30 31 31 31 31 32 34 35 36 35 35 34 30 24 23 24 24 25 25 26 27 29 30 31 31 32 32 33 33 34 34 35 34 33 33 33 34 36 36 36 37 37 35 33 30 28 27 28 28
36 35 35 35 36 38 39 42 42 37 35 36 33 31 31 30 28 27 25 25 25 25 26 25 24 24 22 19 18 18 20 21 20 21 24 27 28 30 31 30 30 31 33 34 34 35 35 34 32 27 24 24 25 24 25 26 27 29 31 31 31 32 32 33 33 33 34 35 34 33 33 33 33 33 35 36 36 37 36 34 32 30 28 28 28 29
38 36 38 38 38 39 40 42 41 36 34 35 33 32 32 30 29 28 27 25 25 25 27 27 26 26 25 23 20 17 17 17 17 19 23 26 28 29 28 27 28 31 33 34 34 34 34 32 29 25 24 25 25 25 26 28 29 31 32 32 33 33 33 33 33 33 34 34 33 33 32 32 32 33 35 36 36 37 36 34 32 30 28 28 28 29
37 36 38 38 39 42 42 41 40 38 36 35 33 33 33 32 31 30 29 27 26 26 26 27 27 27 27 26 24 21 18 17 17 18 21 25 27 27 26 26 29 32 32 33 33 32 30 27 26 26 27 28 28 28 30 31 32 33 33 34 34 33 33 33 33 33 34 33 32 32 32 31 32 33 35 36 36 37 36 34 31 30 29 29 29 30
38 39 40 37 39 42 42 39 39 40 40 38 35 34 34 33 32 32 31 29 28 27 27 26 27 28 29 29 28 25 21 19 19 20 22 24 25 25 24 26 29 31 32 31 30 27 25 26 28 29 30 30 31 32 33 34 35 36 36 36 36 35 33 33 33 34 34 33 32 32 31 31 32 33 35 36 36 36 36 34 31 30 29 29 30 30
40 42 43 42 43 44 41 39 40 41 41 40 37 37 36 35 34 33 32 30 30 29 29 27 26 27 28 28 29 28 25 21 20 21 23 23 23 24 26 26 27 28 29 28 25 25 25 27 29 30 31 32 33 34 35 36 37 37 38 38 38 36 34 33 33 34 33 32 32 32 31 31 31 33 34 36 36 36 36 34 32 31 30 30 30 32